• In Uzbekistan
  • List of Countries
  • For 7 days
  • Water Temperature
  • Satellite Maps
  • Weather Map
  • Weather Widgets
  • user-avatar
    Login

    Hourly Weather Wafra

    Today, 17 October, Tuesday

    Time Temperature Precipitation Wind Pressure Humidity
    00:00 +28°C° 0 mm 1 mps 743 mmHg 33%
    01:00 +28°C° 0 mm 2 mps 743 mmHg 31%
    02:00 +28°C° 0 mm 3 mps 743 mmHg 29%
    03:00 +28°C° 0 mm 3 mps 743 mmHg 30%
    04:00 +28°C° 0 mm 3 mps 743 mmHg 29%
    05:00 +28°C° 0 mm 4 mps 744 mmHg 29%
    06:00 +27°C° 0 mm 4 mps 744 mmHg 28%
    07:00 +29°C° 0 mm 4 mps 744 mmHg 25%
    08:00 +32°C° 0 mm 5 mps 744 mmHg 23%
    09:00 +34°C° 0 mm 6 mps 745 mmHg 19%
    10:00 +35°C° 0 mm 6 mps 745 mmHg 17%
    11:00 +36°C° 0 mm 6 mps 745 mmHg 15%
    12:00 +38°C° 0 mm 6 mps 745 mmHg 14%
    13:00 +38°C° 0 mm 6 mps 744 mmHg 13%
    14:00 +38°C° 0 mm 6 mps 744 mmHg 13%
    15:00 +38°C° 0 mm 6 mps 743 mmHg 16%
    16:00 +35°C° 0 mm 5 mps 743 mmHg 19%
    17:00 +34°C° 0 mm 4 mps 743 mmHg 21%
    18:00 +31°C° 0 mm 3 mps 743 mmHg 24%
    19:00 +31°C° 0 mm 3 mps 744 mmHg 24%
    20:00 +30°C° 0 mm 3 mps 744 mmHg 25%
    21:00 +30°C° 0 mm 3 mps 744 mmHg 26%
    22:00 +30°C° 0 mm 3 mps 744 mmHg 26%
    23:00 +29°C° 0 mm 3 mps 744 mmHg 25%

    Tomorrow, 18 October, Wednesday

    Time Temperature Precipitation Wind Pressure Humidity
    00:00 +29°C° 0 mm 4 mps 744 mmHg 25%
    01:00 +28°C° 0 mm 4 mps 744 mmHg 23%
    02:00 +28°C° 0 mm 5 mps 744 mmHg 21%
    03:00 +27°C° 0 mm 5 mps 744 mmHg 19%
    04:00 +27°C° 0 mm 5 mps 744 mmHg 21%
    05:00 +27°C° 0 mm 5 mps 745 mmHg 22%
    06:00 +26°C° 0 mm 6 mps 745 mmHg 24%
    07:00 +28°C° 0 mm 6 mps 745 mmHg 22%
    08:00 +30°C° 0 mm 7 mps 746 mmHg 20%
    09:00 +33°C° 0 mm 7 mps 746 mmHg 18%
    10:00 +34°C° 0 mm 7 mps 746 mmHg 16%
    11:00 +36°C° 0 mm 6 mps 746 mmHg 14%
    12:00 +38°C° 0 mm 6 mps 746 mmHg 13%
    13:00 +37°C° 0 mm 5 mps 745 mmHg 12%
    14:00 +39°C° 0 mm 5 mps 745 mmHg 12%
    15:00 +38°C° 0 mm 4 mps 745 mmHg 12%
    16:00 +36°C° 0 mm 4 mps 745 mmHg 14%
    17:00 +34°C° 0 mm 3 mps 745 mmHg 17%
    18:00 +31°C° 0 mm 2 mps 745 mmHg 19%
    19:00 +30°C° 0 mm 2 mps 745 mmHg 19%
    20:00 +30°C° 0 mm 2 mps 745 mmHg 19%
    21:00 +30°C° 0 mm 3 mps 746 mmHg 19%
    22:00 +29°C° 0 mm 3 mps 746 mmHg 18%
    23:00 +29°C° 0 mm 4 mps 746 mmHg 18%

    Day after tomorrow, 19 October, Thursday

    Time Temperature Precipitation Wind Pressure Humidity
    00:00 +29°C° 0 mm 4 mps 746 mmHg 18%
    01:00 +28°C° 0 mm 5 mps 746 mmHg 18%
    02:00 +28°C° 0 mm 5 mps 746 mmHg 19%
    03:00 +27°C° 0 mm 6 mps 746 mmHg 19%
    04:00 +27°C° 0 mm 5 mps 746 mmHg 19%
    05:00 +26°C° 0 mm 5 mps 746 mmHg 19%
    06:00 +26°C° 0 mm 5 mps 747 mmHg 18%
    07:00 +28°C° 0 mm 6 mps 747 mmHg 16%
    08:00 +30°C° 0 mm 6 mps 748 mmHg 14%
    09:00 +33°C° 0 mm 6 mps 748 mmHg 12%
    10:00 +34°C° 0 mm 6 mps 748 mmHg 11%
    11:00 +36°C° 0 mm 6 mps 748 mmHg 11%
    12:00 +37°C° 0 mm 5 mps 747 mmHg 10%
    13:00 +37°C° 0 mm 5 mps 747 mmHg 10%
    14:00 +39°C° 0 mm 5 mps 747 mmHg 10%
    15:00 +39°C° 0 mm 5 mps 746 mmHg 9%
    16:00 +36°C° 0 mm 4 mps 746 mmHg 11%
    17:00 +35°C° 0 mm 4 mps 746 mmHg 12%
    18:00 +33°C° 0 mm 3 mps 746 mmHg 14%
    19:00 +31°C° 0 mm 3 mps 747 mmHg 14%
    20:00 +30°C° 0 mm 3 mps 747 mmHg 15%
    21:00 +30°C° 0 mm 3 mps 747 mmHg 15%
    22:00 +29°C° 0 mm 4 mps 747 mmHg 15%
    23:00 +29°C° 0 mm 4 mps 747 mmHg 15%

    20 October, Friday

    Time Temperature Precipitation Wind Pressure Humidity
    00:00 +28°C° 0 mm 4 mps 747 mmHg 15%
    01:00 +28°C° 0 mm 4 mps 746 mmHg 16%
    02:00 +27°C° 0 mm 4 mps 746 mmHg 17%
    03:00 +27°C° 0 mm 4 mps 746 mmHg 18%
    04:00 +27°C° 0 mm 4 mps 746 mmHg 19%
    05:00 +26°C° 0 mm 4 mps 746 mmHg 21%
    06:00 +26°C° 0 mm 4 mps 746 mmHg 22%
    07:00 +28°C° 0 mm 4 mps 747 mmHg 19%
    08:00 +30°C° 0 mm 4 mps 747 mmHg 17%
    09:00 +33°C° 0 mm 4 mps 748 mmHg 15%
    10:00 +34°C° 0 mm 3 mps 748 mmHg 13%
    11:00 +35°C° 0 mm 3 mps 747 mmHg 11%
    12:00 +36°C° 0 mm 3 mps 747 mmHg 10%
    13:00 +37°C° 0 mm 2 mps 747 mmHg 10%
    14:00 +37°C° 0 mm 2 mps 746 mmHg 10%
    15:00 +37°C° 0 mm 2 mps 746 mmHg 9%
    16:00 +35°C° 0 mm 2 mps 746 mmHg 11%
    17:00 +32°C° 0 mm 2 mps 746 mmHg 14%
    18:00 +31°C° 0 mm 2 mps 746 mmHg 16%
    19:00 +30°C° 0 mm 2 mps 746 mmHg 17%
    20:00 +29°C° 0 mm 2 mps 746 mmHg 17%
    21:00 +28°C° 0 mm 2 mps 746 mmHg 18%
    22:00 +28°C° 0 mm 1 mps 746 mmHg 19%
    23:00 +27°C° 0 mm 1 mps 745 mmHg 19%

    21 October, Saturday

    Time Temperature Precipitation Wind Pressure Humidity
    00:00 +26°C° 0 mm 1 mps 745 mmHg 20%
    01:00 +26°C° 0 mm 1 mps 745 mmHg 20%
    02:00 +26°C° 0 mm 1 mps 745 mmHg 20%
    03:00 +26°C° 0 mm 2 mps 745 mmHg 20%
    04:00 +26°C° 0 mm 2 mps 745 mmHg 19%
    05:00 +26°C° 0 mm 2 mps 745 mmHg 18%
    06:00 +25°C° 0 mm 3 mps 746 mmHg 17%
    07:00 +27°C° 0 mm 3 mps 746 mmHg 15%
    08:00 +30°C° 0 mm 3 mps 746 mmHg 13%
    09:00 +33°C° 0 mm 3 mps 747 mmHg 11%
    10:00 +34°C° 0 mm 3 mps 746 mmHg 10%
    11:00 +35°C° 0 mm 3 mps 746 mmHg 10%
    12:00 +36°C° 0 mm 3 mps 745 mmHg 9%
    13:00 +36°C° 0 mm 2 mps 745 mmHg 9%
    14:00 +37°C° 0 mm 2 mps 744 mmHg 9%
    15:00 +37°C° 0 mm 2 mps 744 mmHg 9%
    16:00 +35°C° 0 mm 2 mps 744 mmHg 12%
    17:00 +33°C° 0 mm 3 mps 744 mmHg 14%
    18:00 +30°C° 0 mm 3 mps 744 mmHg 16%
    19:00 +29°C° 0 mm 2 mps 744 mmHg 16%
    20:00 +28°C° 0 mm 2 mps 745 mmHg 17%
    21:00 +27°C° 0 mm 1 mps 745 mmHg 18%
    22:00 +27°C° 0 mm 1 mps 745 mmHg 17%
    23:00 +27°C° 0 mm 2 mps 745 mmHg 17%

    22 October, Sunday

    Time Temperature Precipitation Wind Pressure Humidity
    00:00 +27°C° 0 mm 2 mps 744 mmHg 17%
    01:00 +27°C° 0 mm 2 mps 744 mmHg 17%
    02:00 +26°C° 0 mm 3 mps 744 mmHg 17%
    03:00 +26°C° 0 mm 3 mps 744 mmHg 17%
    04:00 +26°C° 0 mm 3 mps 745 mmHg 18%
    05:00 +26°C° 0 mm 3 mps 745 mmHg 18%
    06:00 +25°C° 0 mm 3 mps 745 mmHg 18%
    07:00 +27°C° 0 mm 3 mps 745 mmHg 16%
    08:00 +30°C° 0 mm 3 mps 746 mmHg 14%
    09:00 +33°C° 0 mm 4 mps 746 mmHg 12%
    10:00 +34°C° 0 mm 3 mps 746 mmHg 11%
    11:00 +35°C° 0 mm 3 mps 745 mmHg 10%
    12:00 +37°C° 0 mm 3 mps 745 mmHg 9%
    13:00 +37°C° 0 mm 3 mps 744 mmHg 9%
    14:00 +37°C° 0 mm 2 mps 744 mmHg 9%
    15:00 +37°C° 0 mm 2 mps 744 mmHg 9%
    16:00 +35°C° 0 mm 2 mps 744 mmHg 11%
    17:00 +32°C° 0 mm 2 mps 744 mmHg 13%
    18:00 +30°C° 0 mm 2 mps 744 mmHg 15%
    19:00 +29°C° 0 mm 2 mps 744 mmHg 17%
    20:00 +29°C° 0 mm 2 mps 744 mmHg 19%
    21:00 +28°C° 0 mm 2 mps 744 mmHg 20%
    22:00 +27°C° 0 mm 2 mps 744 mmHg 20%
    23:00 +27°C° 0 mm 1 mps 744 mmHg 21%
    Show more